When you browse on this site, cookies collect data to enhance your experience and personalize the content and advertising you see.
Visit our Privacy Policy to learn more. By continuing to use the site, you agree to this use of cookies and data.
  • In Lithuania
  • List of Countries
  • For 7 days
  • Water Temperature
  • Weather Map
  • Weather Widgets
  • user-avatar
    Login

    Hourly Weather Megri

    Today, 31 May, Sunday

    Time Temperature Precipitation Wind Pressure Humidity
    00:00 +15°C° 0 mm 2 mps 622 mmHg 52%
    01:00 +15°C° 0 mm 2 mps 622 mmHg 50%
    02:00 +14°C° 0 mm 1 mps 622 mmHg 49%
    03:00 +13°C° 0 mm 1 mps 621 mmHg 47%
    04:00 +14°C° 0 mm 1 mps 622 mmHg 47%
    05:00 +15°C° 0 mm 1 mps 623 mmHg 47%
    06:00 +16°C° 0 mm 1 mps 624 mmHg 47%
    07:00 +18°C° 0 mm 1 mps 624 mmHg 42%
    08:00 +20°C° 0 mm 1 mps 624 mmHg 37%
    09:00 +21°C° 0 mm 1 mps 625 mmHg 32%
    10:00 +22°C° 0 mm 1 mps 625 mmHg 29%
    11:00 +23°C° 0 mm 1 mps 625 mmHg 27%
    12:00 +24°C° 0 mm 2 mps 625 mmHg 25%
    13:00 +24°C° 0 mm 2 mps 625 mmHg 24%
    14:00 +25°C° 0 mm 2 mps 625 mmHg 23%
    15:00 +25°C° 0 mm 2 mps 625 mmHg 23%
    16:00 +24°C° 0 mm 2 mps 624 mmHg 29%
    17:00 +22°C° 0 mm 3 mps 624 mmHg 35%
    18:00 +21°C° 0 mm 3 mps 623 mmHg 41%
    19:00 +19°C° 0 mm 3 mps 623 mmHg 50%
    20:00 +18°C° 0 mm 2 mps 623 mmHg 58%
    21:00 +16°C° 0 mm 2 mps 622 mmHg 67%
    22:00 +15°C° 0 mm 2 mps 622 mmHg 68%
    23:00 +15°C° 0 mm 2 mps 622 mmHg 68%

    Tomorrow, 1 June, Monday

    Time Temperature Precipitation Wind Pressure Humidity
    00:00 +14°C° 0 mm 2 mps 621 mmHg 69%
    01:00 +14°C° 0 mm 2 mps 621 mmHg 70%
    02:00 +13°C° 0 mm 1 mps 621 mmHg 71%
    03:00 +13°C° 0 mm 1 mps 621 mmHg 72%
    04:00 +14°C° 0 mm 1 mps 621 mmHg 67%
    05:00 +15°C° 0 mm 1 mps 622 mmHg 63%
    06:00 +16°C° 0 mm 1 mps 622 mmHg 59%
    07:00 +19°C° 0 mm 1 mps 623 mmHg 51%
    08:00 +20°C° 0 mm 1 mps 623 mmHg 43%
    09:00 +22°C° 0 mm 1 mps 624 mmHg 35%
    10:00 +23°C° 0 mm 2 mps 624 mmHg 30%
    11:00 +24°C° 0 mm 2 mps 624 mmHg 26%
    12:00 +26°C° 0 mm 3 mps 624 mmHg 22%
    13:00 +26°C° 0 mm 3 mps 624 mmHg 21%
    14:00 +27°C° 0 mm 3 mps 624 mmHg 20%
    15:00 +27°C° 0 mm 3 mps 624 mmHg 18%
    16:00 +26°C° 0 mm 3 mps 623 mmHg 22%
    17:00 +26°C° 0 mm 3 mps 623 mmHg 25%
    18:00 +25°C° 0 mm 3 mps 623 mmHg 28%
    19:00 +22°C° 0 mm 3 mps 622 mmHg 31%
    20:00 +20°C° 0 mm 2 mps 622 mmHg 33%
    21:00 +18°C° 0 mm 2 mps 622 mmHg 36%
    22:00 +18°C° 0 mm 2 mps 621 mmHg 39%
    23:00 +17°C° 0 mm 2 mps 621 mmHg 42%

    Day after tomorrow, 2 June, Tuesday

    Time Temperature Precipitation Wind Pressure Humidity
    00:00 +16°C° 0 mm 1 mps 621 mmHg 45%
    01:00 +16°C° 0 mm 1 mps 621 mmHg 45%
    02:00 +16°C° 0 mm 1 mps 620 mmHg 46%
    03:00 +15°C° 0 mm 2 mps 620 mmHg 46%
    04:00 +16°C° 0 mm 2 mps 621 mmHg 45%
    05:00 +18°C° 0 mm 2 mps 621 mmHg 44%
    06:00 +19°C° 0 mm 2 mps 622 mmHg 43%
    07:00 +21°C° 0 mm 3 mps 622 mmHg 37%
    08:00 +24°C° 0 mm 3 mps 623 mmHg 30%
    09:00 +26°C° 0 mm 3 mps 623 mmHg 23%
    10:00 +27°C° 0 mm 4 mps 623 mmHg 21%
    11:00 +28°C° 0 mm 6 mps 624 mmHg 20%
    12:00 +29°C° 0 mm 7 mps 624 mmHg 18%
    13:00 +29°C° 0 mm 7 mps 623 mmHg 17%
    14:00 +29°C° 0 mm 7 mps 623 mmHg 17%
    15:00 +30°C° 0 mm 7 mps 623 mmHg 17%
    16:00 +29°C° 0 mm 6 mps 622 mmHg 20%
    17:00 +28°C° 0 mm 5 mps 622 mmHg 23%
    18:00 +27°C° 0 mm 4 mps 622 mmHg 26%
    19:00 +24°C° 0 mm 3 mps 621 mmHg 30%
    20:00 +21°C° 0 mm 2 mps 620 mmHg 33%
    21:00 +20°C° 0 mm 1 mps 620 mmHg 37%
    22:00 +19°C° 0 mm 1 mps 620 mmHg 40%
    23:00 +18°C° 0 mm 1 mps 619 mmHg 43%

    3 June, Wednesday

    Time Temperature Precipitation Wind Pressure Humidity
    00:00 +16°C° 0 mm 0 mps 619 mmHg 46%
    01:00 +16°C° 0 mm 1 mps 619 mmHg 46%
    02:00 +16°C° 0 mm 1 mps 619 mmHg 46%
    03:00 +15°C° 0 mm 1 mps 619 mmHg 46%
    04:00 +18°C° 0 mm 1 mps 620 mmHg 46%
    05:00 +19°C° 0 mm 1 mps 620 mmHg 46%
    06:00 +20°C° 0 mm 1 mps 621 mmHg 46%
    07:00 +21°C° 0 mm 1 mps 622 mmHg 39%
    08:00 +23°C° 0 mm 2 mps 622 mmHg 33%
    09:00 +25°C° 0 mm 2 mps 623 mmHg 26%
    10:00 +26°C° 0 mm 2 mps 623 mmHg 24%
    11:00 +27°C° 0 mm 3 mps 623 mmHg 21%
    12:00 +28°C° 0 mm 3 mps 624 mmHg 19%
    13:00 +28°C° 0 mm 5 mps 623 mmHg 18%
    14:00 +29°C° 0 mm 6 mps 623 mmHg 18%
    15:00 +29°C° 0 mm 7 mps 623 mmHg 17%
    16:00 +28°C° 0 mm 7 mps 623 mmHg 20%
    17:00 +27°C° 0 mm 6 mps 623 mmHg 23%
    18:00 +26°C° 0 mm 6 mps 622 mmHg 26%
    19:00 +25°C° 0 mm 5 mps 622 mmHg 27%
    20:00 +22°C° 0 mm 4 mps 622 mmHg 28%
    21:00 +21°C° 0 mm 3 mps 621 mmHg 30%
    22:00 +20°C° 0 mm 3 mps 621 mmHg 32%
    23:00 +19°C° 0 mm 3 mps 621 mmHg 33%

    4 June, Thursday

    Time Temperature Precipitation Wind Pressure Humidity
    00:00 +19°C° 0 mm 3 mps 621 mmHg 35%
    01:00 +18°C° 0 mm 3 mps 620 mmHg 37%
    02:00 +18°C° 0 mm 3 mps 620 mmHg 38%
    03:00 +17°C° 0 mm 3 mps 620 mmHg 40%
    04:00 +18°C° 0 mm 3 mps 621 mmHg 40%
    05:00 +18°C° 0 mm 2 mps 621 mmHg 40%
    06:00 +18°C° 0 mm 2 mps 621 mmHg 40%
    07:00 +20°C° 0 mm 2 mps 622 mmHg 35%
    08:00 +21°C° 0 mm 3 mps 623 mmHg 30%
    09:00 +24°C° 0 mm 3 mps 623 mmHg 25%
    10:00 +25°C° 0 mm 3 mps 623 mmHg 23%
    11:00 +26°C° 0 mm 3 mps 624 mmHg 21%
    12:00 +27°C° 0 mm 3 mps 624 mmHg 19%
    13:00 +27°C° 0 mm 3 mps 624 mmHg 18%
    14:00 +28°C° 0 mm 4 mps 624 mmHg 17%
    15:00 +28°C° 0 mm 4 mps 624 mmHg 16%
    16:00 +27°C° 0 mm 3 mps 624 mmHg 19%
    17:00 +26°C° 0 mm 3 mps 624 mmHg 22%
    18:00 +26°C° 0 mm 3 mps 624 mmHg 26%
    19:00 +22°C° 0 mm 3 mps 623 mmHg 31%
    20:00 +20°C° 0 mm 2 mps 623 mmHg 37%
    21:00 +18°C° 0 mm 2 mps 622 mmHg 42%
    22:00 +17°C° 0 mm 2 mps 622 mmHg 44%
    23:00 +17°C° 0 mm 2 mps 622 mmHg 45%

    5 June, Friday

    Time Temperature Precipitation Wind Pressure Humidity
    00:00 +16°C° 0 mm 2 mps 622 mmHg 47%
    01:00 +15°C° 0 mm 2 mps 622 mmHg 50%
    02:00 +15°C° 0 mm 2 mps 622 mmHg 53%
    03:00 +14°C° 0 mm 1 mps 621 mmHg 56%
    04:00 +15°C° 0 mm 1 mps 622 mmHg 54%
    05:00 +16°C° 0 mm 1 mps 623 mmHg 53%
    06:00 +18°C° 0 mm 1 mps 623 mmHg 52%
    07:00 +19°C° 0 mm 2 mps 624 mmHg 44%
    08:00 +20°C° 0 mm 2 mps 624 mmHg 36%
    09:00 +22°C° 0 mm 3 mps 625 mmHg 29%
    10:00 +24°C° 0 mm 3 mps 625 mmHg 26%
    11:00 +25°C° 0 mm 4 mps 625 mmHg 24%
    12:00 +27°C° 0 mm 5 mps 626 mmHg 21%
    13:00 +27°C° 0 mm 5 mps 625 mmHg 20%
    14:00 +28°C° 0 mm 5 mps 625 mmHg 20%
    15:00 +28°C° 0 mm 5 mps 625 mmHg 19%
    16:00 +27°C° 0 mm 4 mps 625 mmHg 22%
    17:00 +26°C° 0 mm 4 mps 624 mmHg 25%
    18:00 +25°C° 0 mm 3 mps 624 mmHg 29%
    19:00 +22°C° 0 mm 3 mps 624 mmHg 32%
    20:00 +20°C° 0 mm 2 mps 623 mmHg 35%
    21:00 +18°C° 0 mm 2 mps 623 mmHg 39%
    22:00 +18°C° 0 mm 1 mps 623 mmHg 41%
    23:00 +18°C° 0 mm 1 mps 623 mmHg 43%
    Show more